This is the latest recevied weather packets stored in our database for station/object WS2Z. If no packets are shown the sender has not sent any weather packets the latest 10 day(s).
| Time | Temp. | Humidity | Pressure | Rain* | Wind** | Luminosity | Snow |
|---|---|---|---|---|---|---|---|
| 1777640816 | 24.44° C | 87% | 1013.8 hPa | 0 mm | - | 125 W/m² | - |
| 1777640514 | 24.44° C | 87% | 1013.7 hPa | 0 mm | - | 52 W/m² | - |
| 1777640211 | 23.89° C | 89% | 1013.6 hPa | 0 mm | - | 50 W/m² | - |
| 1777639302 | 23.33° C | 92% | 1013.5 hPa | 0 mm | - | 48 W/m² | - |
| 1777638693 | 22.78° C | 94% | 1013.7 hPa | 0 mm | - | 46 W/m² | - |
| 1777638390 | 22.22° C | 94% | 1013.7 hPa | 0 mm | - | 44 W/m² | - |
| 1777638087 | 22.22° C | 95% | 1013.7 hPa | 0 mm | - | 41 W/m² | - |
| 1777637783 | 21.67° C | 95% | 1013.6 hPa | 0 mm | - | 39 W/m² | - |
| 1777637479 | 21.67° C | 95% | 1013.6 hPa | 0 mm | - | 39 W/m² | - |
| 1777637177 | 21.67° C | 96% | 1013.4 hPa | 0 mm | - | 36 W/m² | - |
| 1777636874 | 21.67° C | 96% | 1013.4 hPa | 0 mm | - | 40 W/m² | - |
| 1777636266 | 20.56° C | 97% | 1013.5 hPa | 0 mm | - | 56 W/m² | - |
| 1777635661 | 20.56° C | 96% | 1013.4 hPa | 0 mm | - | 31 W/m² | - |
| 1777635359 | 20° C | 96% | 1013.4 hPa | 0 mm | - | 29 W/m² | - |
| 1777635055 | 19.44° C | 96% | 1013.3 hPa | 0 mm | - | 23 W/m² | - |
| 1777634751 | 19.44° C | 96% | 1013.3 hPa | 0 mm | - | 20 W/m² | - |
| 1777634449 | 19.44° C | 96% | 1013.2 hPa | 0 mm | - | 19 W/m² | - |
| 1777634145 | 18.89° C | 96% | 1013.5 hPa | 0 mm | - | 15 W/m² | - |
| 1777633842 | 18.89° C | 96% | 1013.2 hPa | 0 mm | - | 11 W/m² | - |
| 1777633540 | 18.89° C | 96% | 1013.4 hPa | 0 mm | - | 8 W/m² | - |
| 1777633238 | 18.89° C | 96% | 1013.2 hPa | 0 mm | - | 5 W/m² | - |
| 1777632935 | 18.89° C | 96% | 1013.2 hPa | 0 mm | - | 4 W/m² | - |
| 1777632328 | 18.89° C | 96% | 1013 hPa | 0 mm | - | 1 W/m² | - |
| 1777632025 | 18.89° C | 96% | 1013 hPa | 0 mm | - | 0 W/m² | - |
| 1777631723 | 19.44° C | 96% | 1013 hPa | 0 mm | - | 0 W/m² | - |
* Rain latest hour (hover to see other rain measurements)
** Current wind speed in m/s (hover to see current wind gust speed)